| time (UTC) | temp C | wind direction | speed KPH | gust KPH | rain 1hr cm | rain 24hr cm | rain mn cm | humidity % | barometer mb |
| 20260906052211 | 27 | 301 | 1.6 | 3.2 | 0.00 | 0.00 | 0.00 | 80 | 1012.0 |
| 20260906051708 | 27 | 221 | 1.6 | 3.2 | 0.00 | 0.00 | 0.00 | 81 | 1011.6 |
| 20260906051207 | 27 | 212 | 0.0 | 1.6 | 0.00 | 0.00 | 0.00 | 80 | 1011.8 |
| 20260906050703 | 27 | 295 | 1.6 | 3.2 | 0.00 | 0.00 | 0.00 | 79 | 1012.0 |
| 20260906050158 | 27 | 269 | 0.0 | 1.6 | 0.00 | 0.00 | 0.00 | 79 | 1011.7 |
| 20260906045656 | 28 | 283 | 1.6 | 3.2 | 0.00 | 0.00 | 0.00 | 78 | 1011.8 |
| 20260906045151 | 28 | 290 | 3.2 | 4.8 | 0.00 | 0.00 | 0.00 | 78 | 1011.9 |
| 20260906044648 | 27 | 319 | 3.2 | 4.8 | 0.00 | 0.00 | 0.00 | 79 | 1011.6 |
| 20260906044143 | 28 | 316 | 3.2 | 4.8 | 0.00 | 0.00 | 0.00 | 79 | 1011.8 |
| 20260906043639 | 27 | 329 | 3.2 | 4.8 | 0.00 | 0.00 | 0.00 | 80 | 1011.8 |
| 20260906043134 | 27 | 296 | 1.6 | 3.2 | 0.00 | 0.00 | 0.00 | 81 | 1011.8 |
| 20260906042634 | 27 | 292 | 3.2 | 4.8 | 0.00 | 0.00 | 0.00 | 82 | 1011.8 |
| 20260906042128 | 27 | 304 | 3.2 | 8.0 | 0.00 | 0.00 | 0.00 | 82 | 1011.7 |
| 20260906041623 | 27 | 291 | 3.2 | 9.7 | 0.00 | 0.00 | 0.00 | 81 | 1011.6 |
| 20260906041118 | 28 | 299 | 3.2 | 3.2 | 0.00 | 0.00 | 0.00 | 81 | 1011.5 |
| 20260906040614 | 28 | 294 | 3.2 | 4.8 | 0.00 | 0.00 | 0.00 | 79 | 1011.4 |
| 20260906040109 | 28 | 314 | 1.6 | 4.8 | 0.00 | 0.00 | 0.00 | 79 | 1011.7 |
| 20260906035604 | 28 | 304 | 3.2 | 4.8 | 0.00 | 0.00 | 0.00 | 77 | 1011.6 |
| 20260906035100 | 28 | 316 | 3.2 | 4.8 | 0.00 | 0.00 | 0.00 | 74 | 1011.7 |
| 20260906034600 | 29 | 299 | 3.2 | 3.2 | 0.00 | 0.00 | 0.00 | 73 | 1011.5 |
| 20260906034055 | 30 | 293 | 3.2 | 3.2 | 0.00 | 0.00 | 0.00 | 72 | 1011.6 |
| 20260906033550 | 30 | 289 | 3.2 | 4.8 | 0.00 | 0.00 | 0.00 | 71 | 1011.6 |
| 20260906033045 | 30 | 294 | 3.2 | 3.2 | 0.00 | 0.00 | 0.00 | 71 | 1011.6 |
| 20260906032542 | 30 | 291 | 3.2 | 4.8 | 0.00 | 0.00 | 0.00 | 72 | 1011.7 |
| 20260906032036 | 30 | 284 | 3.2 | 4.8 | 0.00 | 0.00 | 0.00 | 71 | 1011.7 |
| 20260906031532 | 30 | 273 | 3.2 | 4.8 | 0.00 | 0.00 | 0.00 | 70 | 1011.8 |
| 20260906031028 | 30 | 297 | 3.2 | 4.8 | 0.00 | 0.00 | 0.00 | 71 | 1011.8 |
| 20260906030527 | 30 | 279 | 3.2 | 3.2 | 0.00 | 0.00 | 0.00 | 72 | 1011.7 |
| 20260906030027 | 30 | 277 | 1.6 | 3.2 | 0.00 | 0.00 | 0.00 | 72 | 1011.6 |
| 20260906025526 | 30 | 274 | 1.6 | 3.2 | 0.00 | 0.00 | 0.00 | 72 | 1011.5 |
| 20260906025024 | 30 | 271 | 1.6 | 3.2 | 0.00 | 0.00 | 0.00 | 71 | 1011.5 |
| 20260906024519 | 30 | 276 | 3.2 | 3.2 | 0.00 | 0.00 | 0.00 | 70 | 1011.6 |
| 20260906024014 | 30 | 292 | 1.6 | 3.2 | 0.00 | 0.00 | 0.00 | 70 | 1011.6 |
| 20260906023510 | 30 | 291 | 3.2 | 3.2 | 0.00 | 0.00 | 0.00 | 69 | 1011.5 |
| 20260906023005 | 30 | 276 | 3.2 | 3.2 | 0.00 | 0.00 | 0.00 | 68 | 1011.5 |
| 20260906022500 | 31 | 267 | 3.2 | 4.8 | 0.00 | 0.00 | 0.00 | 68 | 1011.5 |
| 20260906021955 | 31 | 274 | 3.2 | 4.8 | 0.00 | 0.00 | 0.00 | 68 | 1011.3 |
| 20260906021450 | 30 | 281 | 3.2 | 3.2 | 0.00 | 0.00 | 0.00 | 67 | 1011.2 |
| 20260906020945 | 30 | 288 | 1.6 | 3.2 | 0.00 | 0.00 | 0.00 | 67 | 1011.1 |
| 20260906020439 | 31 | 305 | 1.6 | 3.2 | 0.00 | 0.00 | 0.00 | 68 | 1011.0 |
| 20260906015938 | 31 | 269 | 3.2 | 3.2 | 0.00 | 0.00 | 0.00 | 67 | 1011.1 |
| 20260906015433 | 30 | 269 | 3.2 | 3.2 | 0.00 | 0.00 | 0.00 | 66 | 1010.9 |
| 20260906014933 | 30 | 287 | 1.6 | 3.2 | 0.00 | 0.00 | 0.00 | 67 | 1010.5 |
| 20260906014432 | 31 | 269 | 1.6 | 3.2 | 0.00 | 0.00 | 0.00 | 66 | 1010.8 |
| 20260906013929 | 31 | 284 | 0.0 | 3.2 | 0.00 | 0.00 | 0.00 | 65 | 1010.7 |
| 20260906013424 | 31 | 302 | 1.6 | 3.2 | 0.00 | 0.00 | 0.00 | 64 | 1010.6 |
| 20260906012920 | 31 | 302 | 3.2 | 4.8 | 0.00 | 0.00 | 0.00 | 63 | 1010.9 |
| 20260906012419 | 31 | 300 | 1.6 | 3.2 | 0.00 | 0.00 | 0.00 | 63 | 1010.6 |
| 20260906011918 | 31 | 235 | 0.0 | 1.6 | 0.00 | 0.00 | 0.00 | 62 | 1010.5 |
| 20260906011414 | 31 | 212 | 1.6 | 3.2 | 0.00 | 0.00 | 0.00 | 61 | 1010.4 |
| 20260906010909 | 31 | 269 | 0.0 | 3.2 | 0.00 | 0.00 | 0.00 | 61 | 1010.3 |
| 20260906010405 | 32 | 55 | 0.0 | 1.6 | 0.00 | 0.00 | 0.00 | 62 | 1010.4 |
| 20260906005901 | 32 | 297 | 0.0 | 0.0 | 0.00 | 0.00 | 0.00 | 61 | 1010.4 |
| 20260906005400 | 32 | 297 | 0.0 | 0.0 | 0.00 | 0.00 | 0.00 | 60 | 1010.2 |
| 20260906004859 | 32 | 297 | 0.0 | 0.0 | 0.00 | 0.00 | 0.00 | 59 | 1010.6 |
| 20260906004353 | 32 | 304 | 0.0 | 1.6 | 0.00 | 0.00 | 0.00 | 59 | 1010.4 |
| 20260906003848 | 32 | 316 | 1.6 | 3.2 | 0.00 | 0.00 | 0.00 | 59 | 1010.3 |
| 20260906003344 | 32 | 281 | 1.6 | 3.2 | 0.00 | 0.00 | 0.00 | 58 | 1010.3 |
| 20260906002839 | 33 | 269 | 0.0 | 1.6 | 0.00 | 0.00 | 0.00 | 58 | 1010.4 |
| 20260906002338 | 33 | 272 | 1.6 | 3.2 | 0.00 | 0.00 | 0.00 | 57 | 1010.4 |
| 20260906001834 | 33 | 269 | 0.0 | 1.6 | 0.00 | 0.00 | 0.00 | 56 | 1010.4 |
| 20260906001329 | 34 | 278 | 1.6 | 3.2 | 0.00 | 0.00 | 0.00 | 56 | 1010.5 |
| 20260906000825 | 34 | 269 | 1.6 | 3.2 | 0.00 | 0.00 | 0.00 | 55 | 1010.3 |
| 20260906000319 | 35 | 203 | 0.0 | 4.8 | 0.00 | 0.00 | 0.00 | 54 | 1010.7 |
| 20260905235820 | 35 | 198 | 3.2 | 4.8 | 0.00 | 0.00 | 0.00 | 54 | 1010.4 |
| 20260905235314 | 35 | 194 | 3.2 | 4.8 | 0.00 | 0.00 | 0.00 | 53 | 1010.6 |
| 20260905234809 | 35 | 192 | 3.2 | 4.8 | 0.00 | 0.00 | 0.00 | 50 | 1010.5 |
| 20260905234305 | 35 | 182 | 1.6 | 4.8 | 0.00 | 0.00 | 0.00 | 52 | 1010.6 |
| 20260905233759 | 35 | 216 | 1.6 | 4.8 | 0.00 | 0.00 | 0.00 | 51 | 1010.6 |
| 20260905233254 | 35 | 189 | 3.2 | 4.8 | 0.00 | 0.00 | 0.00 | 51 | 1010.5 |
| 20260905232753 | 35 | 203 | 1.6 | 4.8 | 0.00 | 0.00 | 0.00 | 50 | 1010.7 |
| 20260905232249 | 35 | 187 | 3.2 | 3.2 | 0.00 | 0.00 | 0.00 | 51 | 1010.9 |
| 20260905231745 | 35 | 148 | 4.8 | 8.0 | 0.00 | 0.00 | 0.00 | 50 | 1010.7 |
| 20260905231240 | 36 | 176 | 4.8 | 6.4 | 0.00 | 0.00 | 0.00 | 50 | 1010.7 |
| 20260905230736 | 36 | 168 | 3.2 | 6.4 | 0.00 | 0.00 | 0.00 | 48 | 1010.6 |
| 20260905230233 | 36 | 216 | 3.2 | 6.4 | 0.00 | 0.00 | 0.00 | 47 | 1010.5 |
| 20260905225728 | 36 | 197 | 3.2 | 6.4 | 0.00 | 0.00 | 0.00 | 47 | 1010.6 |
| 20260905225223 | 36 | 176 | 4.8 | 9.7 | 0.00 | 0.00 | 0.00 | 47 | 1010.4 |
| 20260905224722 | 36 | 185 | 4.8 | 8.0 | 0.00 | 0.00 | 0.00 | 47 | 1010.8 |
| 20260905224218 | 36 | 172 | 3.2 | 6.4 | 0.00 | 0.00 | 0.00 | 45 | 1010.5 |
| 20260905223714 | 36 | 173 | 8.0 | 9.7 | 0.00 | 0.00 | 0.00 | 43 | 1010.6 |
| 20260905223210 | 36 | 145 | 6.4 | 11.3 | 0.00 | 0.00 | 0.00 | 44 | 1010.5 |
| 20260905222706 | 37 | 160 | 4.8 | 8.0 | 0.00 | 0.00 | 0.00 | 43 | 1010.6 |
| 20260905222205 | 37 | 169 | 6.4 | 9.7 | 0.00 | 0.00 | 0.00 | 44 | 1010.3 |
| 20260905221701 | 37 | 156 | 6.4 | 11.3 | 0.00 | 0.00 | 0.00 | 43 | 1010.7 |
| 20260905221158 | 37 | 167 | 9.7 | 11.3 | 0.00 | 0.00 | 0.00 | 42 | 1010.6 |
| 20260905220653 | 37 | 164 | 9.7 | 14.5 | 0.00 | 0.00 | 0.00 | 43 | 1010.5 |
| 20260905220149 | 37 | 160 | 8.0 | 9.7 | 0.00 | 0.00 | 0.00 | 45 | 1010.7 |
| 20260905215649 | 37 | 172 | 4.8 | 11.3 | 0.00 | 0.00 | 0.00 | 42 | 1010.7 |
| 20260905215144 | 37 | 166 | 8.0 | 9.7 | 0.00 | 0.00 | 0.00 | 42 | 1010.6 |
| 20260905214640 | 37 | 141 | 4.8 | 9.7 | 0.00 | 0.00 | 0.00 | 41 | 1010.7 |
| 20260905214135 | 37 | 176 | 6.4 | 16.1 | 0.00 | 0.00 | 0.00 | 42 | 1010.8 |
| 20260905213630 | 37 | 176 | 4.8 | 11.3 | 0.00 | 0.00 | 0.00 | 41 | 1010.6 |
| 20260905213126 | 37 | 176 | 6.4 | 11.3 | 0.00 | 0.00 | 0.00 | 43 | 1010.8 |
| 20260905212621 | 38 | 175 | 8.0 | 9.7 | 0.00 | 0.00 | 0.00 | 44 | 1010.9 |
| 20260905212121 | 37 | 262 | 6.4 | 8.0 | 0.00 | 0.00 | 0.00 | 42 | 1010.6 |
| 20260905211615 | 37 | 198 | 4.8 | 11.3 | 0.00 | 0.00 | 0.00 | 42 | 1010.8 |
| 20260905211111 | 37 | 193 | 6.4 | 9.7 | 0.00 | 0.00 | 0.00 | 43 | 1010.7 |
| 20260905210607 | 37 | 191 | 6.4 | 9.7 | 0.00 | 0.00 | 0.00 | 42 | 1010.8 |
| 20260905205601 | 38 | 211 | 4.8 | 8.0 | 0.00 | 0.00 | 0.00 | 41 | 1010.8 |
| 20260905205101 | 38 | 213 | 3.2 | 9.7 | 0.00 | 0.00 | 0.00 | 41 | 1010.9 |
| 20260905204555 | 38 | 221 | 6.4 | 9.7 | 0.00 | 0.00 | 0.00 | 41 | 1011.1 |
| 20260905204050 | 37 | 170 | 6.4 | 12.9 | 0.00 | 0.00 | 0.00 | 43 | 1011.2 |
| 20260905203550 | 38 | 170 | 11.3 | 11.3 | 0.00 | 0.00 | 0.00 | 42 | 1011.2 |
| 20260905203046 | 37 | 176 | 3.2 | 12.9 | 0.00 | 0.00 | 0.00 | 42 | 1011.3 |
| 20260905202541 | 37 | 178 | 6.4 | 12.9 | 0.00 | 0.00 | 0.00 | 42 | 1011.4 |
| 20260905202036 | 37 | 201 | 4.8 | 11.3 | 0.00 | 0.00 | 0.00 | 42 | 1011.7 |
| 20260905201532 | 37 | 182 | 6.4 | 14.5 | 0.00 | 0.00 | 0.00 | 42 | 1011.5 |
| 20260905201031 | 37 | 293 | 3.2 | 11.3 | 0.00 | 0.00 | 0.00 | 41 | 1011.6 |
| 20260905200527 | 37 | 307 | 8.0 | 14.5 | 0.00 | 0.00 | 0.00 | 42 | 1011.6 |
| 20260905200026 | 37 | 37 | 4.8 | 11.3 | 0.00 | 0.00 | 0.00 | 41 | 1011.6 |
| 20260905195520 | 37 | 98 | 6.4 | 11.3 | 0.00 | 0.00 | 0.00 | 41 | 1011.9 |
| 20260905195016 | 37 | 186 | 4.8 | 8.0 | 0.00 | 0.00 | 0.00 | 42 | 1011.9 |
| 20260905194510 | 37 | 36 | 3.2 | 12.9 | 0.00 | 0.00 | 0.00 | 42 | 1012.1 |
| 20260905194010 | 37 | 80 | 3.2 | 12.9 | 0.00 | 0.00 | 0.00 | 42 | 1012.2 |
| 20260905193504 | 37 | 0 | 0.0 | 12.9 | 0.00 | 0.00 | 0.00 | 43 | 1012.2 |
| 20260905192959 | 37 | 324 | 6.4 | 11.3 | 0.00 | 0.00 | 0.00 | 42 | 1012.5 |
| 20260905192454 | 37 | 6 | 6.4 | 11.3 | 0.00 | 0.00 | 0.00 | 43 | 1012.5 |
| 20260905191950 | 37 | 272 | 4.8 | 11.3 | 0.00 | 0.00 | 0.00 | 43 | 1012.4 |
| 20260905191444 | 38 | 274 | 8.0 | 9.7 | 0.00 | 0.00 | 0.00 | 43 | 1012.7 |
| 20260905190943 | 37 | 78 | 3.2 | 8.0 | 0.00 | 0.00 | 0.00 | 43 | 1012.7 |
| 20260905190441 | 37 | 198 | 0.0 | 4.8 | 0.00 | 0.00 | 0.00 | 45 | 1012.9 |
| 20260905185940 | 36 | 50 | 0.0 | 6.4 | 0.00 | 0.00 | 0.00 | 47 | 1012.8 |
| 20260905185436 | 36 | 322 | 1.6 | 8.0 | 0.00 | 0.00 | 0.00 | 46 | 1013.1 |
| 20260905184934 | 36 | 328 | 3.2 | 4.8 | 0.00 | 0.00 | 0.00 | 46 | 1013.1 |
| 20260905184429 | 36 | 28 | 4.8 | 9.7 | 0.00 | 0.00 | 0.00 | 47 | 1012.9 |
| 20260905183928 | 36 | 316 | 3.2 | 11.3 | 0.00 | 0.00 | 0.00 | 47 | 1012.8 |
| 20260905183422 | 37 | 7 | 3.2 | 6.4 | 0.00 | 0.00 | 0.00 | 46 | 1013.0 |
| 20260905182918 | 37 | 315 | 8.0 | 11.3 | 0.00 | 0.00 | 0.00 | 44 | 1013.1 |
| 20260905182416 | 38 | 288 | 6.4 | 9.7 | 0.00 | 0.00 | 0.00 | 43 | 1012.8 |
| 20260905181913 | 38 | 333 | 4.8 | 8.0 | 0.00 | 0.00 | 0.00 | 42 | 1013.0 |
| 20260905181413 | 37 | 193 | 4.8 | 8.0 | 0.00 | 0.00 | 0.00 | 44 | 1013.1 |
| 20260905180912 | 36 | 269 | 1.6 | 4.8 | 0.00 | 0.00 | 0.00 | 45 | 1013.2 |
| 20260905180406 | 35 | 340 | 3.2 | 8.0 | 0.00 | 0.00 | 0.00 | 46 | 1013.1 |
| 20260905175901 | 35 | 321 | 3.2 | 8.0 | 0.00 | 0.00 | 0.00 | 46 | 1013.1 |
| 20260905175401 | 36 | 312 | 6.4 | 9.7 | 0.00 | 0.00 | 0.00 | 46 | 1013.2 |
| 20260905174855 | 37 | 74 | 12.9 | 12.9 | 0.00 | 0.00 | 0.00 | 46 | 1013.1 |
| 20260905174352 | 37 | 273 | 3.2 | 8.0 | 0.00 | 0.00 | 0.00 | 44 | 1013.1 |
| 20260905173847 | 37 | 286 | 3.2 | 11.3 | 0.00 | 0.00 | 0.00 | 44 | 1013.3 |
| 20260905173343 | 37 | 278 | 9.7 | 14.5 | 0.00 | 0.00 | 0.00 | 44 | 1013.3 |
| 20260905172838 | 36 | 52 | 6.4 | 12.9 | 0.00 | 0.00 | 0.00 | 45 | 1013.1 |
| 20260905172336 | 36 | 6 | 6.4 | 12.9 | 0.00 | 0.00 | 0.00 | 47 | 1013.4 |
| 20260905171832 | 37 | 306 | 8.0 | 12.9 | 0.00 | 0.00 | 0.00 | 46 | 1013.4 |
| 20260905171329 | 36 | 293 | 8.0 | 16.1 | 0.00 | 0.00 | 0.00 | 45 | 1013.5 |
| 20260905170825 | 36 | 297 | 6.4 | 11.3 | 0.00 | 0.00 | 0.00 | 45 | 1013.8 |
| 20260905170320 | 36 | 298 | 8.0 | 14.5 | 0.00 | 0.00 | 0.00 | 45 | 1013.8 |
| 20260905165820 | 37 | 267 | 9.7 | 9.7 | 0.00 | 0.00 | 0.00 | 45 | 1013.9 |
| 20260905165315 | 36 | 290 | 11.3 | 12.9 | 0.00 | 0.00 | 0.00 | 47 | 1013.7 |
| 20260905164815 | 36 | 306 | 4.8 | 9.7 | 0.00 | 0.00 | 0.00 | 49 | 1014.0 |
| 20260905164310 | 36 | 279 | 4.8 | 11.3 | 0.00 | 0.00 | 0.00 | 50 | 1013.7 |
| 20260905163805 | 35 | 280 | 4.8 | 9.7 | 0.00 | 0.00 | 0.00 | 50 | 1014.2 |
| 20260905163302 | 36 | 352 | 4.8 | 11.3 | 0.00 | 0.00 | 0.00 | 50 | 1014.1 |
| 20260905162757 | 36 | 26 | 6.4 | 9.7 | 0.00 | 0.00 | 0.00 | 49 | 1014.0 |
| 20260905162257 | 35 | 352 | 8.0 | 20.9 | 0.00 | 0.00 | 0.00 | 50 | 1014.1 |
| 20260905161752 | 35 | 351 | 6.4 | 12.9 | 0.00 | 0.00 | 0.00 | 52 | 1014.3 |
| 20260905161250 | 36 | 318 | 4.8 | 9.7 | 0.00 | 0.00 | 0.00 | 50 | 1014.2 |
| 20260905160749 | 35 | 268 | 3.2 | 8.0 | 0.00 | 0.00 | 0.00 | 52 | 1014.1 |
| 20260905160243 | 35 | 314 | 4.8 | 11.3 | 0.00 | 0.00 | 0.00 | 53 | 1014.1 |
| 20260905155738 | 35 | 323 | 6.4 | 9.7 | 0.00 | 0.00 | 0.00 | 51 | 1014.3 |
| 20260905155237 | 35 | 6 | 4.8 | 11.3 | 0.00 | 0.00 | 0.00 | 53 | 1014.2 |
| 20260905154731 | 35 | 7 | 6.4 | 12.9 | 0.00 | 0.00 | 0.00 | 54 | 1014.1 |
| 20260905154227 | 34 | 18 | 6.4 | 11.3 | 0.00 | 0.00 | 0.00 | 56 | 1014.4 |
| 20260905153723 | 34 | 29 | 9.7 | 14.5 | 0.00 | 0.00 | 0.00 | 56 | 1014.5 |
| 20260905153219 | 34 | 59 | 3.2 | 9.7 | 0.00 | 0.00 | 0.00 | 58 | 1014.5 |
| 20260905152713 | 34 | 359 | 8.0 | 14.5 | 0.00 | 0.00 | 0.00 | 58 | 1014.4 |
| 20260905152207 | 33 | 358 | 3.2 | 12.9 | 0.00 | 0.00 | 0.00 | 60 | 1014.3 |
| 20260905151707 | 33 | 8 | 3.2 | 9.7 | 0.00 | 0.00 | 0.00 | 61 | 1014.3 |
| 20260905151203 | 33 | 0 | 3.2 | 12.9 | 0.00 | 0.00 | 0.00 | 60 | 1014.3 |
| 20260905150658 | 33 | 13 | 8.0 | 9.7 | 0.00 | 0.00 | 0.00 | 61 | 1014.4 |
| 20260905150157 | 33 | 45 | 4.8 | 11.3 | 0.00 | 0.00 | 0.00 | 62 | 1014.5 |
| 20260905145655 | 33 | 50 | 4.8 | 11.3 | 0.00 | 0.00 | 0.00 | 62 | 1014.2 |
| 20260905145149 | 32 | 309 | 6.4 | 9.7 | 0.00 | 0.00 | 0.00 | 64 | 1014.4 |
| 20260905144643 | 33 | 355 | 4.8 | 8.0 | 0.00 | 0.00 | 0.00 | 64 | 1014.2 |
| 20260905144143 | 33 | 344 | 1.6 | 8.0 | 0.00 | 0.00 | 0.00 | 66 | 1014.4 |
| 20260905143637 | 32 | 15 | 4.8 | 11.3 | 0.00 | 0.00 | 0.00 | 67 | 1014.3 |
| 20260905143132 | 32 | 24 | 6.4 | 8.0 | 0.00 | 0.00 | 0.00 | 66 | 1014.5 |
| 20260905142630 | 32 | 20 | 3.2 | 9.7 | 0.00 | 0.00 | 0.00 | 67 | 1014.1 |
| 20260905142125 | 31 | 33 | 8.0 | 11.3 | 0.00 | 0.00 | 0.00 | 67 | 1014.3 |
| 20260905141625 | 31 | 30 | 8.0 | 9.7 | 0.00 | 0.00 | 0.00 | 66 | 1014.3 |
| 20260905141121 | 31 | 326 | 0.0 | 9.7 | 0.00 | 0.00 | 0.00 | 67 | 1014.2 |
| 20260905140616 | 31 | 29 | 8.0 | 11.3 | 0.00 | 0.00 | 0.00 | 67 | 1014.2 |
| 20260905140115 | 31 | 334 | 4.8 | 8.0 | 0.00 | 0.00 | 0.00 | 68 | 1014.2 |
| 20260905135611 | 31 | 351 | 3.2 | 8.0 | 0.00 | 0.00 | 0.00 | 70 | 1014.1 |
| 20260905135106 | 31 | 303 | 3.2 | 6.4 | 0.00 | 0.00 | 0.00 | 72 | 1014.1 |
| 20260905134601 | 30 | 334 | 1.6 | 4.8 | 0.00 | 0.00 | 0.00 | 75 | 1014.1 |
| 20260905134059 | 30 | 311 | 0.0 | 8.0 | 0.00 | 0.00 | 0.00 | 75 | 1014.3 |
| 20260905133555 | 28 | 28 | 3.2 | 4.8 | 0.00 | 0.00 | 0.00 | 79 | 1014.3 |
| 20260905133055 | 28 | 0 | 3.2 | 6.4 | 0.00 | 0.00 | 0.00 | 80 | 1014.1 |
| 20260905132554 | 28 | 17 | 1.6 | 4.8 | 0.00 | 0.00 | 0.00 | 81 | 1014.3 |
| 20260905132049 | 28 | 22 | 3.2 | 4.8 | 0.00 | 0.00 | 0.00 | 80 | 1014.0 |
| 20260905131545 | 28 | 358 | 0.0 | 4.8 | 0.00 | 0.00 | 0.00 | 79 | 1014.1 |
| 20260905131040 | 27 | 251 | 1.6 | 4.8 | 0.00 | 0.00 | 0.00 | 84 | 1014.2 |
| 20260905130539 | 27 | 198 | 1.6 | 4.8 | 0.00 | 0.00 | 0.00 | 86 | 1014.1 |
| 20260905130034 | 26 | 169 | 1.6 | 4.8 | 0.00 | 0.00 | 0.00 | 87 | 1014.1 |
| 20260905125534 | 26 | 188 | 1.6 | 3.2 | 0.00 | 0.00 | 0.00 | 89 | 1014.1 |
| 20260905125029 | 26 | 213 | 3.2 | 4.8 | 0.00 | 0.00 | 0.00 | 89 | 1014.1 |
| 20260905124526 | 26 | 191 | 3.2 | 4.8 | 0.00 | 0.00 | 0.00 | 89 | 1014.0 |
| 20260905124021 | 26 | 212 | 0.0 | 3.2 | 0.00 | 0.00 | 0.00 | 88 | 1013.9 |
| 20260905123517 | 26 | 180 | 3.2 | 6.4 | 0.00 | 0.00 | 0.00 | 88 | 1014.0 |
| 20260905123013 | 26 | 235 | 0.0 | 4.8 | 0.00 | 0.00 | 0.00 | 88 | 1013.6 |
| 20260905122507 | 25 | 336 | 3.2 | 4.8 | 0.00 | 0.00 | 0.00 | 89 | 1013.7 |
| 20260905122003 | 25 | 336 | 3.2 | 4.8 | 0.00 | 0.00 | 0.00 | 90 | 1013.7 |
| 20260905121457 | 25 | 15 | 3.2 | 3.2 | 0.00 | 0.00 | 0.00 | 91 | 1013.7 |
| 20260905120956 | 25 | 268 | 0.0 | 1.6 | 0.00 | 0.00 | 0.00 | 92 | 1013.6 |
| 20260905120451 | 24 | 296 | 0.0 | 3.2 | 0.00 | 0.00 | 0.00 | 93 | 1013.2 |
| 20260905115946 | 24 | 288 | 0.0 | 3.2 | 0.00 | 0.00 | 0.00 | 94 | 1013.2 |
| 20260905115445 | 23 | 269 | 0.0 | 3.2 | 0.00 | 0.00 | 0.00 | 94 | 1013.4 |
| 20260905114940 | 23 | 294 | 0.0 | 4.8 | 0.00 | 0.00 | 0.00 | 94 | 1013.2 |
| 20260905114440 | 23 | 326 | 3.2 | 4.8 | 0.00 | 0.00 | 0.00 | 94 | 1013.2 |
| 20260905113939 | 23 | 296 | 1.6 | 3.2 | 0.00 | 0.00 | 0.00 | 93 | 1013.4 |
| 20260905113434 | 24 | 316 | 3.2 | 3.2 | 0.00 | 0.00 | 0.00 | 93 | 1013.3 |
| 20260905112929 | 24 | 321 | 1.6 | 3.2 | 0.00 | 0.00 | 0.00 | 93 | 1013.3 |
| 20260905112425 | 24 | 296 | 3.2 | 4.8 | 0.00 | 0.00 | 0.00 | 92 | 1013.2 |
| 20260905111920 | 24 | 295 | 3.2 | 4.8 | 0.00 | 0.00 | 0.00 | 93 | 1013.1 |
| 20260905111414 | 24 | 294 | 3.2 | 4.8 | 0.00 | 0.00 | 0.00 | 92 | 1013.4 |
| 20260905110908 | 24 | 292 | 1.6 | 4.8 | 0.00 | 0.00 | 0.00 | 93 | 1013.1 |
| 20260905110402 | 24 | 273 | 3.2 | 4.8 | 0.00 | 0.00 | 0.00 | 92 | 1013.2 |
| 20260905105857 | 24 | 287 | 3.2 | 4.8 | 0.00 | 0.00 | 0.00 | 92 | 1013.0 |
| 20260905105356 | 25 | 305 | 3.2 | 4.8 | 0.00 | 0.00 | 0.00 | 92 | 1013.0 |
| 20260905104850 | 25 | 318 | 4.8 | 4.8 | 0.00 | 0.00 | 0.00 | 92 | 1013.2 |
| 20260905104347 | 25 | 291 | 3.2 | 4.8 | 0.00 | 0.00 | 0.00 | 92 | 1013.0 |
| 20260905103847 | 24 | 297 | 3.2 | 4.8 | 0.00 | 0.00 | 0.00 | 94 | 1012.9 |
| 20260905103343 | 24 | 269 | 0.0 | 3.2 | 0.00 | 0.00 | 0.00 | 94 | 1013.2 |
| 20260905102838 | 24 | 309 | 0.0 | 1.6 | 0.00 | 0.00 | 0.00 | 93 | 1013.2 |
| 20260905102335 | 24 | 250 | 0.0 | 4.8 | 0.00 | 0.00 | 0.00 | 93 | 1013.0 |
| 20260905101835 | 24 | 182 | 6.4 | 8.0 | 0.00 | 0.00 | 0.00 | 93 | 1013.1 |
| 20260905101333 | 24 | 284 | 0.0 | 0.0 | 0.00 | 0.00 | 0.00 | 93 | 1013.3 |
| 20260905100827 | 24 | 309 | 0.0 | 1.6 | 0.00 | 0.00 | 0.00 | 92 | 1013.4 |
| 20260905100324 | 24 | 195 | 0.0 | 1.6 | 0.00 | 0.00 | 0.00 | 92 | 1013.1 |
| 20260905095823 | 24 | 242 | 0.0 | 3.2 | 0.00 | 0.00 | 0.00 | 92 | 1013.1 |
| 20260905095317 | 24 | 309 | 0.0 | 1.6 | 0.00 | 0.00 | 0.00 | 92 | 1013.1 |
| 20260905094811 | 25 | 311 | 0.0 | 3.2 | 0.00 | 0.00 | 0.00 | 91 | 1013.1 |
| 20260905094308 | 25 | 305 | 1.6 | 4.8 | 0.00 | 0.00 | 0.00 | 91 | 1013.0 |
| 20260905093806 | 24 | 284 | 3.2 | 4.8 | 0.00 | 0.00 | 0.00 | 92 | 1012.9 |
| 20260905093302 | 24 | 255 | 0.0 | 1.6 | 0.00 | 0.00 | 0.00 | 92 | 1013.2 |
| 20260905092758 | 24 | 288 | 0.0 | 3.2 | 0.00 | 0.00 | 0.00 | 91 | 1013.3 |
| 20260905092253 | 25 | 339 | 0.0 | 3.2 | 0.00 | 0.00 | 0.00 | 91 | 1013.0 |
| 20260905091753 | 25 | 22 | 0.0 | 1.6 | 0.00 | 0.00 | 0.00 | 90 | 1013.1 |
| 20260905091247 | 25 | 311 | 0.0 | 3.2 | 0.00 | 0.00 | 0.00 | 90 | 1012.8 |
| 20260905090746 | 25 | 325 | 3.2 | 4.8 | 0.00 | 0.00 | 0.00 | 90 | 1013.0 |
| 20260905090242 | 25 | 317 | 3.2 | 4.8 | 0.00 | 0.00 | 0.00 | 90 | 1012.9 |
| 20260905085741 | 25 | 290 | 3.2 | 3.2 | 0.00 | 0.00 | 0.00 | 90 | 1013.2 |
| 20260905085236 | 25 | 326 | 1.6 | 3.2 | 0.00 | 0.00 | 0.00 | 90 | 1012.8 |
| 20260905084736 | 25 | 314 | 1.6 | 3.2 | 0.00 | 0.00 | 0.00 | 90 | 1012.9 |
| 20260905084236 | 25 | 315 | 0.0 | 3.2 | 0.00 | 0.00 | 0.00 | 89 | 1012.9 |
| 20260905083731 | 25 | 317 | 0.0 | 3.2 | 0.00 | 0.00 | 0.00 | 89 | 1012.9 |
| 20260905083226 | 25 | 304 | 0.0 | 1.6 | 0.00 | 0.00 | 0.00 | 88 | 1013.1 |
| 20260905082722 | 25 | 269 | 0.0 | 3.2 | 0.00 | 0.00 | 0.00 | 88 | 1012.8 |
| 20260905082218 | 25 | 293 | 1.6 | 3.2 | 0.00 | 0.00 | 0.00 | 88 | 1012.7 |
| 20260905081712 | 25 | 307 | 3.2 | 4.8 | 0.00 | 0.00 | 0.00 | 87 | 1013.0 |
| 20260905081208 | 26 | 311 | 1.6 | 3.2 | 0.00 | 0.00 | 0.00 | 86 | 1012.8 |
| 20260905080706 | 26 | 304 | 1.6 | 3.2 | 0.00 | 0.00 | 0.00 | 86 | 1013.0 |
| 20260905080201 | 26 | 293 | 3.2 | 3.2 | 0.00 | 0.00 | 0.00 | 87 | 1013.2 |
| 20260905075700 | 26 | 281 | 1.6 | 3.2 | 0.00 | 0.00 | 0.00 | 86 | 1013.2 |
| 20260905075159 | 26 | 294 | 0.0 | 1.6 | 0.00 | 0.00 | 0.00 | 86 | 1013.2 |
| 20260905074658 | 26 | 333 | 3.2 | 4.8 | 0.00 | 0.00 | 0.00 | 85 | 1013.2 |
| 20260905074154 | 26 | 271 | 0.0 | 3.2 | 0.00 | 0.00 | 0.00 | 85 | 1013.1 |
| 20260905073650 | 26 | 300 | 1.6 | 4.8 | 0.00 | 0.00 | 0.00 | 85 | 1013.1 |
| 20260905073146 | 26 | 305 | 3.2 | 3.2 | 0.00 | 0.00 | 0.00 | 84 | 1012.9 |
| 20260905072645 | 26 | 308 | 3.2 | 4.8 | 0.00 | 0.00 | 0.00 | 84 | 1013.1 |
| 20260905072140 | 26 | 186 | 0.0 | 3.2 | 0.00 | 0.00 | 0.00 | 83 | 1013.0 |
| 20260905071637 | 26 | 224 | 3.2 | 3.2 | 0.00 | 0.00 | 0.00 | 83 | 1013.1 |
| 20260905071132 | 26 | 229 | 0.0 | 3.2 | 0.00 | 0.00 | 0.00 | 83 | 1013.0 |
| 20260905070627 | 26 | 154 | 0.0 | 3.2 | 0.00 | 0.00 | 0.00 | 83 | 1013.1 |
| 20260905070123 | 26 | 131 | 0.0 | 3.2 | 0.00 | 0.00 | 0.00 | 83 | 1013.0 |
| 20260905065621 | 26 | 136 | 0.0 | 1.6 | 0.00 | 0.00 | 0.00 | 83 | 1012.9 |
| 20260905065116 | 26 | 50 | 0.0 | 0.0 | 0.00 | 0.00 | 0.00 | 83 | 1013.1 |
| 20260905064611 | 26 | 22 | 0.0 | 3.2 | 0.00 | 0.00 | 0.00 | 83 | 1013.1 |
| 20260905064107 | 26 | 76 | 0.0 | 3.2 | 0.00 | 0.00 | 0.00 | 84 | 1013.1 |
| 20260905063605 | 26 | 46 | 0.0 | 4.8 | 0.00 | 0.00 | 0.00 | 83 | 1013.0 |
| 20260905063102 | 27 | 113 | 0.0 | 3.2 | 0.00 | 0.00 | 0.00 | 82 | 1013.0 |
| 20260905062557 | 27 | 111 | 1.6 | 3.2 | 0.00 | 0.00 | 0.00 | 81 | 1013.1 |
| 20260905062051 | 27 | 84 | 0.0 | 3.2 | 0.00 | 0.00 | 0.00 | 80 | 1013.0 |
| 20260905061546 | 27 | 89 | 0.0 | 1.6 | 0.00 | 0.00 | 0.00 | 80 | 1013.2 |
| 20260905061045 | 27 | 122 | 1.6 | 3.2 | 0.00 | 0.00 | 0.00 | 80 | 1013.1 |
| 20260905060541 | 27 | 115 | 1.6 | 3.2 | 0.00 | 0.00 | 0.00 | 81 | 1013.1 |
| 20260905060037 | 27 | 89 | 0.0 | 0.0 | 0.00 | 0.00 | 0.00 | 81 | 1013.1 |
| 20260905055535 | 27 | 66 | 0.0 | 3.2 | 0.00 | 0.00 | 0.00 | 83 | 1013.3 |
| 20260905055030 | 26 | 129 | 0.0 | 1.6 | 0.00 | 0.00 | 0.00 | 84 | 1013.3 |
| 20260905054526 | 27 | 75 | 0.0 | 1.6 | 0.00 | 0.00 | 0.00 | 84 | 1013.3 |
| 20260905054022 | 26 | 32 | 0.0 | 1.6 | 0.00 | 0.00 | 0.00 | 85 | 1013.3 |
| 20260905053521 | 27 | 29 | 1.6 | 3.2 | 0.00 | 0.00 | 0.00 | 84 | 1013.2 |
| 20260905053017 | 27 | 62 | 0.0 | 3.2 | 0.00 | 0.00 | 0.00 | 84 | 1013.4 |